Location: Seattle
(47.6064°N, 122.3308°W)
Time: 01:05:01
(UTC-08:00)

A-11 Canister half - Pass Details

Date: 30 November 2020
Orbit: 1524 x 1684 km, 47.3° (Epoch: 27 January)

Event Time Altitude Azimuth Distance (km) Brightness Sun altitude
Rises 10:29:28 0° 286° (WNW) 4,913 11.3 17.8°
Reaches altitude 10° 10:32:41 10° 284° (WNW) 3,908 10.9 18.0°
Maximum altitude 10:42:33 68° 205° (SSW) 1,722 9.9 18.5°
Drops below altitude 10° 10:52:03 10° 125° (SE) 3,775 12.0 19.0°
Sets 10:55:06 0° 123° (ESE) 4,738 12.3 19.1°
